Zurück zum Katalog

STARLINK-4446

AktivKommunikationPO
NORAD 53505·PAYLOAD·🇺🇸 United States

Gestartet Aug 12, 2022 von Vandenberg Space Force Base

Loading…

Nächste Überflüge (nächste 24 Stunden)

TLE

AktuellSource: CelesTrak SupGP

Epoche: Sep 14, 2026, 21:19 UTC

1 53505C 22099AS  26257.88868056  .00436150  00000+0  63274-3 0  2571
2 53505  97.5999  39.3568 0006031 248.8606 112.4194 16.05009326    11

Verfolge STARLINK-4446 in Echtzeit mit AllMySat

Download on the App Store